Погода в Казарово

Россия / Тюменская область     57°13′03″N   65°32′59″E
темп.,
°C
ветер,
м/с
пор.,
м/с
влажн.,
%
обл.,
%
осадки,
мм/ч
давл.,
гПа
погр.,
м
23 января, сб
сб2323:00−31с349668 0.0 102550
02:00−33с34960 0.0 102852
05:00−35ссз34950 0.0 103059
08:00−38с339589 0.0 103433
11:00−36ссз249451 0.0 1035132
14:00−32сз228792 0.0 1037259
17:00−35зсз129357 0.0 103919
20:00−36зюз119440 0.0 104019
24 января, вс
вс2423:00−35ю129167 0.0 104019
02:00−33юв2294100 0.0 103851
05:00−33юв2495100 0.0 103789
08:00−35ююв349426 0.0 104049
11:00−32юв469555 0.0 1040172
14:00−28юв4794100 0.0 1038265
17:00−31в34974 0.0 103964
20:00−25ююв51098100 1.1 1033347
25 января, пн
пн2523:00−24ююв5997100 1.9 1032377
02:00−22юв4698100 0.5 1030320
05:00−27юв5898100 1.1 1037290
08:00−22вюв239899 0.0 102923
11:00−24юв5796100 1.6 1036326
14:00−23юв4696100 0.2 1036345
17:00−17юв2296100 0.1 103031
20:00−15юв349699 0.2 1029104
26 января, вт
вт2623:00−13ююв339698 0.6 102779
02:00−7ююв229799 0.6 102665
05:000зюз5996100 1.1 1025319
08:00−3зюз499598 0.1 1025336
11:00−3зюз5119396 0.1 1024383
14:00−1з6109264 0.0 1024518
17:00−1з6109081 0.0 1024556
20:00−3зюз61292100 0.0 1025418
27 января, ср
ср2723:00−5зюз61291100 0.0 1025430
02:00−5зюз61291100 0.0 1024377
05:00−5зюз61292100 0.0 1024385
08:00−4з51291100 0.0 1022467
11:00−4юз5994100 0.4 1027347
14:00−3з5989100 0.0 1025542
17:00−4з259699 0.1 1025169
20:00−7зюз369394 0.0 1026102